Time,TemperatureF,DewpointF,PressureIn,WindDirection,WindDirectionDegrees,WindSpeedMPH,WindSpeedGustMPH,Humidity,HourlyPrecipIn,Conditions,Clouds,dailyrainin,SoftwareType,DateUTC
2013-12-09 00:00:00,46.1,45.0,29.16,South,184,3.0,4.0,97,0.03,,,0.80,weatherlink.com 1.10,2013-12-09 05:00:00,
2013-12-09 00:15:00,46.1,45.0,29.16,SSE,155,1.0,5.0,97,0.06,,,0.04,weatherlink.com 1.10,2013-12-09 05:15:00,
2013-12-09 00:31:00,46.0,45.0,29.16,South,177,2.0,4.0,97,0.07,,,0.05,weatherlink.com 1.10,2013-12-09 05:31:00,
2013-12-09 00:46:00,46.0,45.0,29.17,SSW,200,1.0,6.0,97,0.08,,,0.06,weatherlink.com 1.10,2013-12-09 05:46:00,
2013-12-09 01:01:00,46.0,45.0,29.16,SSW,208,2.0,3.0,97,0.08,,,0.08,weatherlink.com 1.10,2013-12-09 06:01:00,
2013-12-09 01:16:00,46.1,45.0,29.16,South,178,1.0,3.0,97,0.06,,,0.10,weatherlink.com 1.10,2013-12-09 06:16:00,
2013-12-09 01:31:00,46.0,45.0,29.16,SSW,195,2.0,9.0,97,0.07,,,0.12,weatherlink.com 1.10,2013-12-09 06:31:00,
2013-12-09 01:46:00,45.8,45.0,29.16,South,178,2.0,5.0,97,0.06,,,0.12,weatherlink.com 1.10,2013-12-09 06:46:00,
2013-12-09 02:01:00,45.8,45.0,29.16,SSW,192,3.0,5.0,97,0.05,,,0.13,weatherlink.com 1.10,2013-12-09 07:01:00,
2013-12-09 02:16:00,45.6,45.0,29.14,South,191,2.0,4.0,97,0.03,,,0.13,weatherlink.com 1.10,2013-12-09 07:16:00,
2013-12-09 02:31:00,45.5,45.0,29.15,SW,220,2.0,4.0,97,0.01,,,0.13,weatherlink.com 1.10,2013-12-09 07:31:00,
2013-12-09 02:46:00,45.4,45.0,29.14,SSE,166,2.0,6.0,97,0.02,,,0.14,weatherlink.com 1.10,2013-12-09 07:46:00,
2013-12-09 03:01:00,45.4,45.0,29.15,SSW,192,2.0,6.0,97,0.02,,,0.15,weatherlink.com 1.10,2013-12-09 08:01:00,
2013-12-09 03:31:00,45.6,45.0,29.15,South,173,1.0,4.0,97,0.02,,,0.15,weatherlink.com 1.10,2013-12-09 08:31:00,
2013-12-09 03:46:00,45.8,45.0,29.15,WNW,283,3.0,4.0,97,0.01,,,0.15,weatherlink.com 1.10,2013-12-09 08:46:00,
2013-12-09 04:01:00,45.8,45.0,29.16,WSW,239,2.0,4.0,97,0.01,,,0.16,weatherlink.com 1.10,2013-12-09 09:01:00,
2013-12-09 04:16:00,45.6,45.0,29.16,West,267,2.0,3.0,97,0.01,,,0.16,weatherlink.com 1.10,2013-12-09 09:16:00,
2013-12-09 04:32:00,45.4,45.0,29.15,SSW,207,2.0,4.0,97,0.02,,,0.17,weatherlink.com 1.10,2013-12-09 09:32:00,
2013-12-09 04:46:00,45.2,44.0,29.16,WSW,237,5.0,6.0,97,0.02,,,0.17,weatherlink.com 1.10,2013-12-09 09:46:00,
2013-12-09 05:01:00,45.0,44.0,29.15,South,188,0.0,4.0,97,0.10,,,0.26,weatherlink.com 1.10,2013-12-09 10:01:00,
2013-12-09 05:16:00,45.0,44.0,29.15,SSE,159,1.0,4.0,97,0.10,,,0.26,weatherlink.com 1.10,2013-12-09 10:16:00,
2013-12-09 05:31:00,45.1,44.0,29.16,SSW,193,2.0,5.0,97,0.09,,,0.26,weatherlink.com 1.10,2013-12-09 10:31:00,
2013-12-09 05:46:00,45.1,44.0,29.15,South,169,2.0,4.0,97,0.11,,,0.28,weatherlink.com 1.10,2013-12-09 10:46:00,
2013-12-09 06:01:00,45.1,44.0,29.16,SSE,163,2.0,4.0,97,0.02,,,0.28,weatherlink.com 1.10,2013-12-09 11:01:00,
2013-12-09 06:16:00,45.2,44.0,29.17,South,187,1.0,5.0,97,0.02,,,0.28,weatherlink.com 1.10,2013-12-09 11:16:00,
2013-12-09 06:31:00,45.2,44.0,29.18,SSW,205,4.0,6.0,97,0.01,,,0.28,weatherlink.com 1.10,2013-12-09 11:31:00,
2013-12-09 06:46:00,45.2,44.0,29.18,South,172,3.0,4.0,97,0.00,,,0.28,weatherlink.com 1.10,2013-12-09 11:46:00,
2013-12-09 07:01:00,45.2,44.0,29.19,South,173,3.0,5.0,97,0.00,,,0.28,weatherlink.com 1.10,2013-12-09 12:01:00,
2013-12-09 07:16:00,45.1,44.0,29.19,SSE,153,1.0,5.0,97,0.00,,,0.28,weatherlink.com 1.10,2013-12-09 12:16:00,
2013-12-09 07:31:00,45.1,44.0,29.20,SSE,162,2.0,3.0,97,0.00,,,0.28,weatherlink.com 1.10,2013-12-09 12:31:00,
2013-12-09 07:46:00,45.1,44.0,29.19,SSE,163,1.0,3.0,97,0.00,,,0.28,weatherlink.com 1.10,2013-12-09 12:46:00,
2013-12-09 08:01:00,45.1,44.0,29.20,SSE,167,2.0,3.0,97,0.01,,,0.29,weatherlink.com 1.10,2013-12-09 13:01:00,
2013-12-09 08:16:00,45.2,44.0,29.19,SSE,168,1.0,2.0,97,0.01,,,0.29,weatherlink.com 1.10,2013-12-09 13:16:00,
2013-12-09 08:31:00,45.4,45.0,29.19,SSE,160,1.0,3.0,97,0.01,,,0.29,weatherlink.com 1.10,2013-12-09 13:31:00,
2013-12-09 08:46:00,45.5,45.0,29.19,South,170,0.0,2.0,97,0.01,,,0.29,weatherlink.com 1.10,2013-12-09 13:46:00,
2013-12-09 09:01:00,45.8,45.0,29.20,South,171,0.0,2.0,97,0.00,,,0.29,weatherlink.com 1.10,2013-12-09 14:01:00,
2013-12-09 09:16:00,46.0,45.0,29.21,South,171,1.0,3.0,97,0.00,,,0.29,weatherlink.com 1.10,2013-12-09 14:16:00,
2013-12-09 09:31:00,46.2,45.0,29.21,South,171,0.0,2.0,97,0.00,,,0.29,weatherlink.com 1.10,2013-12-09 14:31:00,
2013-12-09 09:46:00,46.5,46.0,29.21,South,171,2.0,3.0,97,0.00,,,0.29,weatherlink.com 1.10,2013-12-09 14:46:00,
2013-12-09 10:01:00,46.7,46.0,29.22,South,171,1.0,2.0,97,0.00,,,0.29,weatherlink.com 1.10,2013-12-09 15:01:00,
2013-12-09 10:16:00,46.8,46.0,29.23,South,177,0.0,3.0,97,0.00,,,0.29,weatherlink.com 1.10,2013-12-09 15:16:00,
2013-12-09 10:31:00,47.1,46.0,29.23,SSE,161,1.0,4.0,97,0.00,,,0.29,weatherlink.com 1.10,2013-12-09 15:31:00,
2013-12-09 10:46:00,47.2,46.0,29.22,South,186,0.0,3.0,97,0.00,,,0.29,weatherlink.com 1.10,2013-12-09 15:46:00,
2013-12-09 11:01:00,47.2,46.0,29.22,South,188,1.0,3.0,97,0.00,,,0.29,weatherlink.com 1.10,2013-12-09 16:01:00,
2013-12-09 11:16:00,47.7,47.0,29.23,South,169,1.0,3.0,97,0.00,,,0.29,weatherlink.com 1.10,2013-12-09 16:16:00,
2013-12-09 11:31:00,47.9,47.0,29.22,South,175,0.0,3.0,97,0.00,,,0.29,weatherlink.com 1.10,2013-12-09 16:31:00,
2013-12-09 11:46:00,48.3,48.0,29.22,South,175,1.0,2.0,97,0.00,,,0.29,weatherlink.com 1.10,2013-12-09 16:46:00,
2013-12-09 12:01:00,49.1,48.0,29.21,South,175,2.0,2.0,97,0.00,,,0.29,weatherlink.com 1.10,2013-12-09 17:01:00,
2013-12-09 12:16:00,49.3,48.0,29.20,ESE,120,0.0,2.0,96,0.00,,,0.29,weatherlink.com 1.10,2013-12-09 17:16:00,
2013-12-09 12:31:00,49.9,49.0,29.20,North,351,2.0,4.0,95,0.00,,,0.29,weatherlink.com 1.10,2013-12-09 17:31:00,
2013-12-09 12:46:00,49.9,49.0,29.20,WNW,287,3.0,3.0,95,0.00,,,0.29,weatherlink.com 1.10,2013-12-09 17:46:00,
2013-12-09 13:01:00,50.1,49.0,29.20,North,360,2.0,4.0,95,0.00,,,0.29,weatherlink.com 1.10,2013-12-09 18:01:00,
2013-12-09 13:16:00,50.7,49.0,29.19,North,360,2.0,3.0,94,0.00,,,0.29,weatherlink.com 1.10,2013-12-09 18:16:00,
2013-12-09 13:31:00,51.3,49.0,29.19,NW,306,1.0,3.0,93,0.00,,,0.29,weatherlink.com 1.10,2013-12-09 18:31:00,
2013-12-09 13:47:00,51.7,50.0,29.18,WNW,293,1.0,2.0,92,0.00,,,0.29,weatherlink.com 1.10,2013-12-09 18:47:00,
2013-12-09 14:02:00,52.2,49.0,29.17,WNW,293,1.0,2.0,90,0.00,,,0.29,weatherlink.com 1.10,2013-12-09 19:02:00,
2013-12-09 14:17:00,52.7,50.0,29.16,NNE,26,1.0,3.0,90,0.00,,,0.29,weatherlink.com 1.10,2013-12-09 19:17:00,
2013-12-09 14:32:00,53.2,50.0,29.16,NNE,31,0.0,4.0,89,0.00,,,0.29,weatherlink.com 1.10,2013-12-09 19:32:00,
2013-12-09 14:47:00,53.3,50.0,29.15,NNE,31,1.0,2.0,88,0.00,,,0.29,weatherlink.com 1.10,2013-12-09 19:47:00,
2013-12-09 15:02:00,53.7,50.0,29.16,WNW,298,1.0,3.0,87,0.00,,,0.29,weatherlink.com 1.10,2013-12-09 20:02:00,
2013-12-09 15:17:00,53.8,50.0,29.16,WNW,299,1.0,3.0,87,0.00,,,0.29,weatherlink.com 1.10,2013-12-09 20:17:00,
2013-12-09 15:32:00,54.0,50.0,29.16,WNW,299,2.0,3.0,86,0.00,,,0.29,weatherlink.com 1.10,2013-12-09 20:32:00,
2013-12-09 15:47:00,54.2,50.0,29.16,NW,304,1.0,4.0,86,0.00,,,0.29,weatherlink.com 1.10,2013-12-09 20:47:00,
2013-12-09 16:02:00,54.1,50.0,29.17,NW,326,3.0,5.0,87,0.00,,,0.29,weatherlink.com 1.10,2013-12-09 21:02:00,
2013-12-09 16:17:00,53.6,50.0,29.17,NNW,331,1.0,5.0,87,0.00,,,0.29,weatherlink.com 1.10,2013-12-09 21:17:00,
2013-12-09 16:32:00,53.3,50.0,29.17,North,360,0.0,4.0,87,0.00,,,0.29,weatherlink.com 1.10,2013-12-09 21:32:00,
2013-12-09 16:47:00,53.2,50.0,29.17,North,360,0.0,1.0,87,0.00,,,0.29,weatherlink.com 1.10,2013-12-09 21:47:00,
2013-12-09 17:02:00,52.9,50.0,29.17,North,360,0.0,1.0,88,0.00,,,0.29,weatherlink.com 1.10,2013-12-09 22:02:00,
2013-12-09 17:17:00,52.2,49.0,29.18,North,360,0.0,1.0,88,0.00,,,0.29,weatherlink.com 1.10,2013-12-09 22:17:00,
2013-12-09 17:32:00,50.8,48.0,29.18,WNW,303,1.0,2.0,90,0.00,,,0.29,weatherlink.com 1.10,2013-12-09 22:32:00,
2013-12-09 17:47:00,49.4,47.0,29.18,WNW,303,0.0,2.0,91,0.00,,,0.29,weatherlink.com 1.10,2013-12-09 22:47:00,
2013-12-09 18:02:00,48.3,46.0,29.18,WNW,303,0.0,1.0,91,0.00,,,0.29,weatherlink.com 1.10,2013-12-09 23:02:00,
2013-12-09 18:17:00,47.6,46.0,29.19,North,5,3.0,5.0,94,0.00,,,0.29,weatherlink.com 1.10,2013-12-09 23:17:00,
2013-12-09 18:32:00,47.4,45.0,29.19,NNE,22,2.0,7.0,91,0.00,,,0.29,weatherlink.com 1.10,2013-12-09 23:32:00,
2013-12-09 18:47:00,47.3,45.0,29.19,North,5,3.0,5.0,91,0.00,,,0.29,weatherlink.com 1.10,2013-12-09 23:47:00,
2013-12-09 19:02:00,46.9,44.0,29.19,NNW,345,3.0,9.0,89,0.00,,,0.29,weatherlink.com 1.10,2013-12-10 00:02:00,
2013-12-09 19:17:00,46.5,44.0,29.20,North,360,5.0,6.0,89,0.00,,,0.29,weatherlink.com 1.10,2013-12-10 00:17:00,
2013-12-09 19:32:00,45.9,43.0,29.19,NNE,33,6.0,8.0,88,0.00,,,0.29,weatherlink.com 1.10,2013-12-10 00:32:00,
2013-12-09 19:47:00,45.4,42.0,29.19,NNW,346,2.0,6.0,89,0.00,,,0.29,weatherlink.com 1.10,2013-12-10 00:47:00,
2013-12-09 20:02:00,45.0,42.0,29.18,NNE,13,3.0,7.0,89,0.00,,,0.29,weatherlink.com 1.10,2013-12-10 01:02:00,
2013-12-09 20:17:00,44.8,42.0,29.18,NNW,342,1.0,7.0,90,0.00,,,0.29,weatherlink.com 1.10,2013-12-10 01:17:00,
2013-12-09 20:32:00,44.5,42.0,29.17,NE,52,1.0,4.0,90,0.00,,,0.29,weatherlink.com 1.10,2013-12-10 01:32:00,
2013-12-09 20:47:00,44.1,42.0,29.16,North,11,1.0,4.0,91,0.00,,,0.29,weatherlink.com 1.10,2013-12-10 01:47:00,
2013-12-09 21:02:00,43.8,41.0,29.16,NNE,25,1.0,5.0,90,0.00,,,0.29,weatherlink.com 1.10,2013-12-10 02:02:00,
2013-12-09 21:17:00,43.6,41.0,29.16,North,360,1.0,7.0,91,0.00,,,0.29,weatherlink.com 1.10,2013-12-10 02:17:00,
2013-12-09 21:32:00,43.4,41.0,29.16,NW,318,0.0,4.0,91,0.00,,,0.29,weatherlink.com 1.10,2013-12-10 02:32:00,
2013-12-09 21:47:00,43.4,41.0,29.15,North,10,2.0,4.0,91,0.00,,,0.29,weatherlink.com 1.10,2013-12-10 02:47:00,
2013-12-09 22:02:00,43.1,41.0,29.13,NNE,25,2.0,5.0,91,0.00,,,0.29,weatherlink.com 1.10,2013-12-10 03:02:00,
2013-12-09 22:17:00,42.6,40.0,29.12,North,350,3.0,9.0,90,0.00,,,0.29,weatherlink.com 1.10,2013-12-10 03:17:00,
2013-12-09 22:32:00,42.4,40.0,29.10,NNE,15,2.0,5.0,91,0.00,,,0.29,weatherlink.com 1.10,2013-12-10 03:32:00,
2013-12-09 22:47:00,42.1,40.0,29.11,North,349,1.0,6.0,91,0.00,,,0.29,weatherlink.com 1.10,2013-12-10 03:47:00,
2013-12-09 23:02:00,42.0,40.0,29.11,NNW,338,2.0,6.0,91,0.00,,,0.29,weatherlink.com 1.10,2013-12-10 04:02:00,
2013-12-09 23:17:00,42.0,40.0,29.14,ENE,69,1.0,14.0,92,0.02,,,0.31,weatherlink.com 1.10,2013-12-10 04:17:00,
2013-12-09 23:32:00,41.9,40.0,29.13,North,355,2.0,5.0,94,0.05,,,0.34,weatherlink.com 1.10,2013-12-10 04:32:00,
2013-12-09 23:47:00,41.6,40.0,29.09,NNE,28,2.0,5.0,94,0.08,,,0.37,weatherlink.com 1.10,2013-12-10 04:47:00,